EWG27Z EDDH-EDDL

Flight info

Callsign EWG27Z
Flight time 0h 49m
Altitude 31000
Route IDEKO7G/33 IDEKO N850 ROBEG/N0428F300 DCT DENOL T851 HALME HALME1A
Aircraft A319/M-SDE3FGHIRWY/LB1

Departure

Time 2026-05-07 15:31
Airport Hamburg Helmut Schmidt Airport (EDDH)

Arrival

Time 2026-05-07 16:20
Airport Düsseldorf Airport (EDDL)
Time Latitude Longitude Altitude Speed Heading
2026-05-07 14:50 53.63312 10.00030 61 ft 0 kts 140°
2026-05-07 15:20 53.63316 10.00025 61 ft 2 kts 140°
2026-05-07 15:20 53.63327 10.00009 61 ft 2 kts 141°
2026-05-07 15:20 53.63339 9.99993 61 ft 2 kts 140°
2026-05-07 15:21 53.63350 9.99977 61 ft 2 kts 141°
2026-05-07 15:21 53.63359 9.99964 61 ft 0 kts 140°
2026-05-07 15:21 53.63366 9.99950 61 ft 2 kts 96°
2026-05-07 15:21 53.63364 9.99934 61 ft 0 kts 54°
2026-05-07 15:22 53.63359 9.99925 61 ft 1 kts 49°
2026-05-07 15:22 53.63359 9.99924 61 ft 0 kts 49°
2026-05-07 15:24 53.63362 9.99930 61 ft 5 kts 50°
2026-05-07 15:24 53.63419 10.00042 61 ft 16 kts 49°
2026-05-07 15:24 53.63380 10.00161 61 ft 16 kts 177°
2026-05-07 15:25 53.63264 10.00174 61 ft 17 kts 175°
2026-05-07 15:25 53.63141 10.00187 61 ft 18 kts 178°
2026-05-07 15:25 53.63058 10.00172 61 ft 9 kts 215°
2026-05-07 15:25 53.63002 10.00107 61 ft 8 kts 213°
2026-05-07 15:26 53.62946 10.00047 61 ft 10 kts 213°
2026-05-07 15:26 53.62915 9.99977 61 ft 2 kts 244°
2026-05-07 15:26 53.62903 9.99933 61 ft 5 kts 243°
2026-05-07 15:26 53.62896 9.99910 61 ft 0 kts 242°
2026-05-07 15:28 53.62895 9.99907 61 ft 1 kts 243°
2026-05-07 15:29 53.62888 9.99884 61 ft 0 kts 244°
2026-05-07 15:29 53.62882 9.99861 61 ft 3 kts 244°
2026-05-07 15:29 53.62862 9.99772 61 ft 14 kts 277°
2026-05-07 15:29 53.62893 9.99724 61 ft 0 kts 333°
2026-05-07 15:30 53.63004 9.99629 61 ft 50 kts 333°
2026-05-07 15:30 53.63559 9.99154 62 ft 122 kts 332°
2026-05-07 15:30 53.64465 9.98379 302 ft 157 kts 335°
2026-05-07 15:31 53.65420 9.97519 998 ft 158 kts 336°
2026-05-07 15:31 53.66398 9.96661 1686 ft 161 kts 338°
2026-05-07 15:31 53.67408 9.95807 2380 ft 163 kts 339°
2026-05-07 15:31 53.68431 9.94957 3067 ft 165 kts 339°
2026-05-07 15:32 53.69491 9.94067 3616 ft 177 kts 338°
2026-05-07 15:32 53.70656 9.93073 4117 ft 195 kts 333°
2026-05-07 15:32 53.71581 9.91278 4582 ft 220 kts 291°
2026-05-07 15:32 53.71614 9.88608 4924 ft 242 kts 257°
2026-05-07 15:33 53.71048 9.85786 4934 ft 259 kts 248°
2026-05-07 15:33 53.70328 9.82834 4972 ft 278 kts 248°
2026-05-07 15:33 53.69746 9.80323 4975 ft 280 kts 249°
2026-05-07 15:34 53.69547 9.79424 4977 ft 281 kts 250°
2026-05-07 15:34 53.68877 9.76251 5198 ft 289 kts 251°
2026-05-07 15:34 53.68238 9.73077 6105 ft 291 kts 251°
2026-05-07 15:34 53.67599 9.69847 7237 ft 289 kts 252°
2026-05-07 15:35 53.66973 9.66673 8243 ft 289 kts 252°
2026-05-07 15:35 53.66339 9.63457 9206 ft 290 kts 252°
2026-05-07 15:35 53.65505 9.60336 10103 ft 292 kts 233°
2026-05-07 15:35 53.63961 9.58069 10806 ft 300 kts 207°
2026-05-07 15:36 53.61919 9.57116 11262 ft 314 kts 187°
2026-05-07 15:36 53.59692 9.56725 11858 ft 324 kts 186°
2026-05-07 15:36 53.57420 9.56340 12570 ft 329 kts 186°
2026-05-07 15:36 53.55157 9.55935 13298 ft 333 kts 187°
2026-05-07 15:37 53.52833 9.55500 14014 ft 336 kts 187°
2026-05-07 15:37 53.50522 9.55055 14735 ft 340 kts 187°
2026-05-07 15:37 53.48161 9.54593 15427 ft 343 kts 187°
2026-05-07 15:37 53.45776 9.54123 16098 ft 346 kts 187°
2026-05-07 15:38 53.43369 9.53647 16785 ft 350 kts 188°
2026-05-07 15:38 53.40925 9.53163 17441 ft 353 kts 188°
2026-05-07 15:38 53.38451 9.52675 18082 ft 356 kts 188°
2026-05-07 15:38 53.35964 9.52186 18717 ft 360 kts 188°
2026-05-07 15:39 53.33493 9.51701 19330 ft 363 kts 188°
2026-05-07 15:39 53.30959 9.51206 19956 ft 365 kts 188°
2026-05-07 15:39 53.28451 9.50722 20556 ft 368 kts 188°
2026-05-07 15:39 53.25864 9.50221 21161 ft 371 kts 188°
2026-05-07 15:40 53.23304 9.49723 21731 ft 373 kts 188°
2026-05-07 15:40 53.20726 9.49162 22278 ft 375 kts 193°
2026-05-07 15:40 53.18310 9.47487 22791 ft 375 kts 215°
2026-05-07 15:40 53.16239 9.44808 23379 ft 376 kts 221°
2026-05-07 15:41 53.14248 9.42001 23868 ft 379 kts 221°
2026-05-07 15:41 53.12199 9.39197 24366 ft 383 kts 220°
2026-05-07 15:41 53.10066 9.36405 24863 ft 386 kts 219°
2026-05-07 15:41 53.07899 9.33638 25337 ft 389 kts 218°
2026-05-07 15:42 53.05764 9.30920 25782 ft 392 kts 218°
2026-05-07 15:42 53.03628 9.28029 26223 ft 395 kts 220°
2026-05-07 15:42 53.01495 9.25063 26660 ft 398 kts 220°
2026-05-07 15:42 52.99338 9.22063 27093 ft 401 kts 220°
2026-05-07 15:43 52.97187 9.19086 27506 ft 404 kts 220°
2026-05-07 15:43 52.95009 9.16085 27908 ft 406 kts 220°
2026-05-07 15:43 52.92826 9.13089 28402 ft 407 kts 220°
2026-05-07 15:43 52.90627 9.10075 28956 ft 405 kts 220°
2026-05-07 15:44 52.88452 9.07106 29478 ft 404 kts 220°
2026-05-07 15:44 52.86258 9.04129 29917 ft 405 kts 220°
2026-05-07 15:44 52.84082 9.01174 30295 ft 408 kts 220°
2026-05-07 15:44 52.81874 8.98173 30663 ft 410 kts 220°
2026-05-07 15:45 52.79657 8.95168 30994 ft 412 kts 220°
2026-05-07 15:45 52.77448 8.92176 31031 ft 413 kts 220°
2026-05-07 15:45 52.72987 8.86132 31042 ft 412 kts 220°
2026-05-07 15:46 52.67622 8.78876 31047 ft 412 kts 220°
2026-05-07 15:47 52.63136 8.72833 31046 ft 412 kts 220°
2026-05-07 15:47 52.58667 8.66830 30710 ft 412 kts 220°
2026-05-07 15:47 52.56416 8.63814 30433 ft 413 kts 220°
2026-05-07 15:48 52.54208 8.60863 30161 ft 413 kts 220°
2026-05-07 15:48 52.49720 8.54887 30060 ft 413 kts 220°
2026-05-07 15:49 52.45224 8.48903 30051 ft 413 kts 220°
2026-05-07 15:49 52.40731 8.42934 30052 ft 413 kts 220°
2026-05-07 15:50 52.36212 8.36941 30049 ft 413 kts 220°
2026-05-07 15:50 52.31729 8.30997 30047 ft 413 kts 219°
2026-05-07 15:51 52.27238 8.25052 30041 ft 413 kts 219°
2026-05-07 15:51 52.22739 8.19135 30039 ft 413 kts 219°
2026-05-07 15:52 52.18258 8.13250 30035 ft 412 kts 219°
2026-05-07 15:52 52.13805 8.07405 29807 ft 406 kts 219°
2026-05-07 15:52 52.11705 8.04433 29535 ft 401 kts 225°
2026-05-07 15:53 52.09728 8.01154 29261 ft 401 kts 227°
2026-05-07 15:53 52.07815 7.97880 28990 ft 401 kts 227°
2026-05-07 15:53 52.05858 7.94548 28652 ft 403 kts 226°
2026-05-07 15:53 52.03902 7.91253 28182 ft 403 kts 226°
2026-05-07 15:54 52.01953 7.87994 27624 ft 403 kts 226°
2026-05-07 15:54 52.00020 7.84779 27088 ft 400 kts 226°
2026-05-07 15:54 51.98086 7.81574 26680 ft 393 kts 226°
2026-05-07 15:54 51.96169 7.78402 26253 ft 388 kts 226°
2026-05-07 15:55 51.94290 7.75296 25824 ft 383 kts 226°
2026-05-07 15:55 51.92457 7.72275 25401 ft 378 kts 226°
2026-05-07 15:55 51.90609 7.69234 24968 ft 374 kts 226°
2026-05-07 15:55 51.88777 7.66228 24543 ft 369 kts 226°
2026-05-07 15:56 51.86972 7.63265 24119 ft 366 kts 226°
2026-05-07 15:56 51.85225 7.60378 23713 ft 362 kts 226°
2026-05-07 15:56 51.83461 7.57456 23307 ft 359 kts 226°
2026-05-07 15:56 51.81724 7.54575 22906 ft 355 kts 226°
2026-05-07 15:57 51.79998 7.51714 22496 ft 353 kts 226°
2026-05-07 15:57 51.78306 7.48911 22098 ft 350 kts 226°
2026-05-07 15:57 51.76606 7.46097 21701 ft 348 kts 226°
2026-05-07 15:57 51.74901 7.43275 21293 ft 346 kts 227°
2026-05-07 15:58 51.73232 7.40515 20898 ft 344 kts 227°
2026-05-07 15:58 51.71555 7.37744 20501 ft 343 kts 227°
2026-05-07 15:58 51.69890 7.34999 20109 ft 341 kts 227°
2026-05-07 15:58 51.68223 7.32247 19713 ft 341 kts 226°
2026-05-07 15:59 51.66550 7.29485 19303 ft 340 kts 226°
2026-05-07 15:59 51.64908 7.26778 18905 ft 339 kts 226°
2026-05-07 15:59 51.63271 7.24071 18266 ft 337 kts 226°
2026-05-07 15:59 51.61642 7.21375 17094 ft 343 kts 226°
2026-05-07 16:00 51.59964 7.18601 15749 ft 350 kts 226°
2026-05-07 16:00 51.58293 7.15847 14997 ft 338 kts 226°
2026-05-07 16:00 51.56662 7.13162 14761 ft 334 kts 226°
2026-05-07 16:00 51.55083 7.10392 14430 ft 334 kts 230°
2026-05-07 16:01 51.53650 7.07504 14064 ft 332 kts 233°
2026-05-07 16:01 51.52255 7.04545 13686 ft 330 kts 233°
2026-05-07 16:01 51.50883 7.01622 13296 ft 328 kts 233°
2026-05-07 16:01 51.49494 6.98665 12903 ft 327 kts 233°
2026-05-07 16:02 51.48129 6.95764 12508 ft 326 kts 233°
2026-05-07 16:02 51.46764 6.92867 12113 ft 324 kts 233°
2026-05-07 16:02 51.45382 6.89937 11707 ft 323 kts 233°
2026-05-07 16:02 51.44043 6.87103 11325 ft 321 kts 233°
2026-05-07 16:03 51.42680 6.84223 10941 ft 320 kts 233°
2026-05-07 16:03 51.41333 6.81377 10573 ft 318 kts 233°
2026-05-07 16:03 51.40007 6.78582 10058 ft 312 kts 233°
2026-05-07 16:03 51.38715 6.75859 9548 ft 299 kts 233°
2026-05-07 16:04 51.37480 6.73262 9040 ft 288 kts 233°
2026-05-07 16:04 51.36285 6.70750 8531 ft 280 kts 233°
2026-05-07 16:04 51.35126 6.68315 8029 ft 276 kts 234°
2026-05-07 16:04 51.33977 6.65904 7509 ft 271 kts 234°
2026-05-07 16:05 51.32830 6.63496 6952 ft 270 kts 234°
2026-05-07 16:05 51.31702 6.61129 6404 ft 269 kts 234°
2026-05-07 16:05 51.30574 6.58763 5834 ft 268 kts 234°
2026-05-07 16:05 51.29449 6.56410 5208 ft 266 kts 234°
2026-05-07 16:06 51.28319 6.54051 4577 ft 265 kts 234°
2026-05-07 16:06 51.27208 6.51732 3978 ft 262 kts 234°
2026-05-07 16:06 51.26019 6.49472 3828 ft 271 kts 223°
2026-05-07 16:06 51.24416 6.47869 3631 ft 273 kts 199°
2026-05-07 16:07 51.22564 6.47516 3323 ft 268 kts 172°
2026-05-07 16:07 51.20804 6.48352 3163 ft 256 kts 152°
2026-05-07 16:07 51.19305 6.49878 3004 ft 249 kts 141°
2026-05-07 16:07 51.18153 6.51855 2768 ft 241 kts 114°
2026-05-07 16:08 51.17871 6.54330 2521 ft 221 kts 77°
2026-05-07 16:08 51.18562 6.56378 2363 ft 209 kts 47°
2026-05-07 16:08 51.19555 6.58145 2332 ft 209 kts 47°
2026-05-07 16:08 51.20491 6.59832 2264 ft 198 kts 49°
2026-05-07 16:09 51.21337 6.61559 2145 ft 191 kts 52°
2026-05-07 16:09 51.22089 6.63127 2207 ft 168 kts 50°
2026-05-07 16:09 51.22805 6.64571 1969 ft 158 kts 50°
2026-05-07 16:09 51.23466 6.65908 1795 ft 148 kts 50°
2026-05-07 16:10 51.24085 6.67193 1493 ft 146 kts 51°
2026-05-07 16:10 51.24714 6.68472 1193 ft 142 kts 50°
2026-05-07 16:10 51.25299 6.69706 981 ft 141 kts 52°
2026-05-07 16:10 51.25909 6.70977 820 ft 143 kts 51°
2026-05-07 16:11 51.26519 6.72217 671 ft 142 kts 52°
2026-05-07 16:11 51.27129 6.73500 491 ft 142 kts 51°
2026-05-07 16:11 51.27730 6.74736 312 ft 139 kts 52°
2026-05-07 16:11 51.28319 6.75962 167 ft 134 kts 52°
2026-05-07 16:12 51.28847 6.77064 155 ft 120 kts 52°
2026-05-07 16:12 51.29406 6.78249 587 ft 138 kts 51°
2026-05-07 16:12 51.29979 6.79446 1317 ft 140 kts 51°
2026-05-07 16:12 51.30586 6.80703 2073 ft 145 kts 51°
2026-05-07 16:13 51.31206 6.81990 2690 ft 151 kts 51°
2026-05-07 16:13 51.31890 6.83404 3051 ft 177 kts 50°
2026-05-07 16:13 51.32921 6.84691 3307 ft 203 kts 23°
2026-05-07 16:13 51.34317 6.85036 3181 ft 201 kts 352°
2026-05-07 16:14 51.35583 6.84164 3024 ft 202 kts 321°
2026-05-07 16:14 51.36407 6.82338 2880 ft 205 kts 292°
2026-05-07 16:14 51.36576 6.80069 2860 ft 209 kts 263°
2026-05-07 16:14 51.36039 6.77880 3001 ft 214 kts 237°
2026-05-07 16:15 51.35148 6.75981 3124 ft 216 kts 233°
2026-05-07 16:15 51.34217 6.74050 3187 ft 216 kts 234°
2026-05-07 16:15 51.33302 6.72173 3091 ft 210 kts 233°
2026-05-07 16:15 51.32412 6.70356 2965 ft 205 kts 233°
2026-05-07 16:16 51.31541 6.68588 2850 ft 199 kts 234°
2026-05-07 16:16 51.30712 6.66837 2757 ft 191 kts 235°
2026-05-07 16:16 51.29942 6.65247 2783 ft 172 kts 232°
2026-05-07 16:16 51.29196 6.63819 2662 ft 163 kts 233°
2026-05-07 16:17 51.28369 6.62610 2442 ft 165 kts 208°
2026-05-07 16:17 51.27254 6.62186 2262 ft 163 kts 175°
2026-05-07 16:17 51.26186 6.62751 2082 ft 161 kts 141°
2026-05-07 16:17 51.25521 6.64147 1943 ft 156 kts 108°
2026-05-07 16:18 51.25248 6.65845 1782 ft 163 kts 98°
2026-05-07 16:18 51.25102 6.67654 1558 ft 163 kts 88°
2026-05-07 16:18 51.25263 6.69401 1209 ft 160 kts 69°
2026-05-07 16:18 51.25821 6.70898 906 ft 154 kts 51°
2026-05-07 16:19 51.26488 6.72228 652 ft 150 kts 51°
2026-05-07 16:19 51.27140 6.73534 489 ft 148 kts 51°
2026-05-07 16:19 51.27785 6.74860 289 ft 148 kts 51°
2026-05-07 16:19 51.28405 6.76147 165 ft 140 kts 52°
2026-05-07 16:20 51.28945 6.77268 154 ft 107 kts 52°
2026-05-07 16:20 51.29239 6.77886 153 ft 34 kts 53°
2026-05-07 16:20 51.29282 6.78151 153 ft 16 kts 121°
2026-05-07 16:20 51.29178 6.78208 153 ft 16 kts 175°
2026-05-07 16:21 51.29079 6.78205 153 ft 13 kts 184°
2026-05-07 16:21 51.28998 6.78155 153 ft 8 kts 235°
2026-05-07 16:21 51.28962 6.78064 153 ft 10 kts 237°
2026-05-07 16:21 51.28914 6.77953 153 ft 14 kts 232°
2026-05-07 16:22 51.28821 6.77844 153 ft 18 kts 226°
2026-05-07 16:22 51.28735 6.77667 153 ft 21 kts 232°
2026-05-07 16:22 51.28641 6.77563 153 ft 16 kts 221°
2026-05-07 16:22 51.28570 6.77414 153 ft 17 kts 233°
2026-05-07 16:23 51.28522 6.77290 153 ft 7 kts 251°
2026-05-07 16:23 51.28544 6.77247 153 ft 5 kts 316°
2026-05-07 16:23 51.28565 6.77220 153 ft 0 kts 320°